TimeEDT,TemperatureF,Dew PointF,Humidity,Sea Level PressureIn,VisibilityMPH,Wind Direction,Wind SpeedMPH,Gust SpeedMPH,PrecipitationIn,Events,Conditions,WindDirDegrees,DateUTC
12:15 AM,55.9,48.4,76,29.86,10.0,Calm,Calm,-,N/A,,Overcast,0,2013-04-01 04:15:00
12:35 AM,55.4,48.7,78,29.86,10.0,Calm,Calm,-,N/A,,Overcast,0,2013-04-01 04:35:00
12:55 AM,55.2,49.3,80,29.87,10.0,Calm,Calm,-,N/A,Rain,Light Rain,0,2013-04-01 04:55:00
1:15 AM,54.0,49.1,84,29.87,10.0,Calm,Calm,-,N/A,,Overcast,0,2013-04-01 05:15:00
1:35 AM,53.8,49.6,86,29.86,10.0,Calm,Calm,-,N/A,,Overcast,0,2013-04-01 05:35:00
1:55 AM,52.7,49.5,89,29.87,10.0,Calm,Calm,-,N/A,,Overcast,0,2013-04-01 05:55:00
2:15 AM,52.9,49.1,87,29.86,10.0,Calm,Calm,-,N/A,,Mostly Cloudy,0,2013-04-01 06:15:00
2:35 AM,51.1,48.4,90,29.86,10.0,Calm,Calm,-,N/A,,Mostly Cloudy,0,2013-04-01 06:35:00
2:55 AM,48.9,46.8,92,29.86,10.0,NW,3.5,-,N/A,,Mostly Cloudy,310,2013-04-01 06:55:00
3:15 AM,48.9,47.3,94,29.86,10.0,ENE,3.5,-,N/A,,Mostly Cloudy,70,2013-04-01 07:15:00
3:35 AM,47.5,45.9,94,29.86,10.0,Calm,Calm,-,N/A,,Scattered Clouds,0,2013-04-01 07:35:00
3:55 AM,46.6,45.7,97,29.86,10.0,NW,3.5,-,N/A,,Scattered Clouds,310,2013-04-01 07:55:00
4:15 AM,44.8,43.9,97,29.86,10.0,Calm,Calm,-,N/A,,Clear,0,2013-04-01 08:15:00
4:35 AM,44.1,43.9,99,29.86,7.0,Calm,Calm,-,N/A,,Clear,0,2013-04-01 08:35:00
4:55 AM,43.9,43.2,97,29.87,3.0,Calm,Calm,-,N/A,,Clear,0,2013-04-01 08:55:00
5:15 AM,41.9,41.5,99,29.87,4.0,Calm,Calm,-,N/A,,Clear,0,2013-04-01 09:15:00
5:35 AM,41.9,41.4,98,29.88,7.0,Calm,Calm,-,N/A,,Clear,0,2013-04-01 09:35:00
5:55 AM,40.3,39.7,98,29.88,5.0,Calm,Calm,-,N/A,,Clear,0,2013-04-01 09:55:00
6:15 AM,39.7,39.4,99,29.89,1.5,Calm,Calm,-,N/A,,Mist,0,2013-04-01 10:15:00
6:35 AM,38.1,37.8,99,29.89,2.5,Calm,Calm,-,N/A,,Clear,0,2013-04-01 10:35:00
6:55 AM,37.8,37.0,97,29.89,4.0,Calm,Calm,-,N/A,,Scattered Clouds,0,2013-04-01 10:55:00
7:15 AM,36.5,36.1,99,29.90,4.0,Calm,Calm,-,N/A,,Scattered Clouds,0,2013-04-01 11:15:00
7:35 AM,37.4,36.9,98,29.90,1.2,Calm,Calm,-,N/A,,Mostly Cloudy,0,2013-04-01 11:35:00
7:55 AM,37.9,37.4,98,29.92,10.0,Calm,Calm,-,N/A,,Scattered Clouds,0,2013-04-01 11:55:00
8:15 AM,40.8,40.5,99,29.92,10.0,Calm,Calm,-,N/A,,Clear,0,2013-04-01 12:15:00
8:35 AM,43.0,42.4,98,29.91,10.0,Calm,Calm,-,N/A,,Clear,0,2013-04-01 12:35:00
9:15 AM,53.4,44.1,71,29.91,10.0,West,3.5,-,N/A,,Clear,280,2013-04-01 13:15:00
9:35 AM,56.7,41.7,57,29.90,10.0,WSW,3.5,-,N/A,,Clear,240,2013-04-01 13:35:00
9:55 AM,58.1,39.9,51,29.90,10.0,West,5.8,-,N/A,,Clear,260,2013-04-01 13:55:00
10:15 AM,59.0,39.7,49,29.90,10.0,West,5.8,-,N/A,,Clear,270,2013-04-01 14:15:00
10:35 AM,60.4,39.7,46,29.90,10.0,SW,5.8,-,N/A,,Clear,220,2013-04-01 14:35:00
10:55 AM,62.6,40.6,45,29.90,10.0,WNW,5.8,-,N/A,,Clear,300,2013-04-01 14:55:00
11:15 AM,63.0,40.1,43,29.90,10.0,WSW,8.1,-,N/A,,Clear,240,2013-04-01 15:15:00
11:35 AM,65.1,36.7,35,29.90,10.0,WNW,6.9,16.1,N/A,,Mostly Cloudy,300,2013-04-01 15:35:00
11:55 AM,63.3,36.7,37,29.90,10.0,WNW,8.1,17.3,N/A,,Overcast,300,2013-04-01 15:55:00
12:15 PM,66.2,36.5,33,29.90,10.0,West,10.4,19.6,N/A,,Scattered Clouds,270,2013-04-01 16:15:00
12:35 PM,66.2,36.9,34,29.90,10.0,West,6.9,24.2,N/A,,Scattered Clouds,280,2013-04-01 16:35:00
1:15 PM,67.1,37.2,33,29.88,10.0,West,9.2,18.4,N/A,,Mostly Cloudy,280,2013-04-01 17:15:00
1:35 PM,66.4,36.7,33,29.88,10.0,WSW,5.8,17.3,N/A,,Mostly Cloudy,250,2013-04-01 17:35:00
1:55 PM,65.1,35.1,33,29.88,10.0,West,9.2,17.3,N/A,,Overcast,270,2013-04-01 17:55:00
2:15 PM,64.4,35.1,34,29.88,10.0,WSW,9.2,20.7,N/A,,Overcast,240,2013-04-01 18:15:00
2:35 PM,63.3,35.8,36,29.88,10.0,WNW,8.1,-,N/A,,Overcast,290,2013-04-01 18:35:00
2:55 PM,64.6,37.6,37,29.88,10.0,WNW,8.1,-,N/A,,Mostly Cloudy,290,2013-04-01 18:55:00
3:15 PM,64.6,38.3,38,29.88,10.0,WNW,12.7,24.2,N/A,,Mostly Cloudy,300,2013-04-01 19:15:00
3:35 PM,63.0,38.3,40,29.88,10.0,West,6.9,-,N/A,,Overcast,280,2013-04-01 19:35:00
3:55 PM,61.3,39.4,44,29.88,10.0,WNW,10.4,17.3,N/A,,Overcast,300,2013-04-01 19:55:00
4:15 PM,62.4,40.6,45,29.88,10.0,WNW,6.9,-,N/A,,Overcast,300,2013-04-01 20:15:00
4:35 PM,63.3,39.4,41,29.88,10.0,NW,13.8,-,N/A,,Mostly Cloudy,310,2013-04-01 20:35:00
4:55 PM,63.0,38.8,41,29.88,10.0,West,11.5,23.0,N/A,,Mostly Cloudy,270,2013-04-01 20:55:00
5:15 PM,62.2,37.2,39,29.88,10.0,NW,12.7,20.7,N/A,,Overcast,310,2013-04-01 21:15:00
5:35 PM,61.7,37.9,41,29.88,10.0,NW,10.4,-,N/A,,Overcast,310,2013-04-01 21:35:00
5:55 PM,61.2,36.7,40,29.89,10.0,NW,10.4,20.7,N/A,,Overcast,310,2013-04-01 21:55:00
6:15 PM,61.0,36.5,40,29.88,10.0,WNW,9.2,20.7,N/A,,Overcast,300,2013-04-01 22:15:00
6:35 PM,61.7,36.5,39,29.89,10.0,WNW,6.9,-,N/A,,Mostly Cloudy,290,2013-04-01 22:35:00
6:55 PM,59.5,36.0,41,29.90,10.0,NW,5.8,-,N/A,,Scattered Clouds,310,2013-04-01 22:55:00
7:15 PM,58.8,34.7,40,29.90,10.0,NW,8.1,-,N/A,,Scattered Clouds,320,2013-04-01 23:15:00
7:35 PM,57.2,34.9,43,29.91,10.0,NW,5.8,-,N/A,,Mostly Cloudy,310,2013-04-01 23:35:00
7:55 PM,57.2,33.3,40,29.92,10.0,WNW,5.8,-,N/A,,Mostly Cloudy,290,2013-04-01 23:55:00
8:15 PM,56.7,32.0,39,29.92,10.0,Calm,Calm,-,N/A,,Overcast,0,2013-04-02 00:15:00
8:35 PM,55.6,31.8,41,29.93,10.0,WNW,3.5,-,N/A,,Scattered Clouds,290,2013-04-02 00:35:00
8:55 PM,52.5,32.4,46,29.93,10.0,NW,4.6,-,N/A,,Clear,310,2013-04-02 00:55:00
9:15 PM,52.3,33.3,48,29.96,10.0,NNW,16.1,23.0,N/A,,Clear,330,2013-04-02 01:15:00
9:35 PM,50.2,33.8,53,29.97,10.0,NNW,13.8,18.4,N/A,,Clear,340,2013-04-02 01:35:00
9:55 PM,48.4,34.0,58,29.98,10.0,NNW,9.2,-,N/A,,Clear,340,2013-04-02 01:55:00
10:15 PM,47.7,34.0,59,29.99,10.0,NNW,9.2,-,N/A,,Clear,340,2013-04-02 02:15:00
10:35 PM,46.9,33.3,59,30.00,10.0,North,13.8,-,N/A,,Clear,350,2013-04-02 02:35:00
10:55 PM,46.4,32.9,59,30.01,10.0,North,11.5,-,N/A,,Clear,350,2013-04-02 02:55:00
11:15 PM,45.3,32.2,60,30.01,10.0,NNW,4.6,-,N/A,,Scattered Clouds,330,2013-04-02 03:15:00
11:35 PM,45.0,31.8,60,30.02,10.0,North,8.1,-,N/A,,Mostly Cloudy,360,2013-04-02 03:35:00
11:55 PM,45.0,30.9,58,30.02,10.0,North,8.1,-,N/A,,Scattered Clouds,360,2013-04-02 03:55:00